Weather History for Galliano, LA

Change the Weather History Date:

Saturday, January 19, 2013

  Actual Average (KAXO) Record (KAXO)
Temperature  
Mean Temperature 56 °F -  
Max Temperature 64 °F 58 °F 68 °F (2000)
Min Temperature 48 °F 54 °F 42 °F (2008)
Degree Days  
Heating Degree Days 9    
Growing Degree Days 6 (Base 50)    
Moisture  
Dew Point 46 °F    
Average Humidity 74    
Maximum Humidity 100    
Minimum Humidity 52    
Precipitation  
Precipitation 0.00 in - - ()
Sea Level Pressure  
Sea Level Pressure 30.30 in    
Wind  
Wind Speed 8 mph (NE)    
Max Wind Speed 13 mph    
Max Gust Speed -    
Visibility 10 miles    
Events      
Averages and records for this station are not official NWS values.
T = Trace of Precipitation, MM = Missing Value Source: NWS Daily Summary

Daily Weather History Graph

Daily Weather History Graph

Search for Another Location

Airport:

Trip Planner

Search our weather history database for the weather conditions in past years. The results will help you decide how hot, cold, wet, or windy it might be!

Date:

Astronomy

Jan. 19, 2013 Rise Set
Actual Time 6:55 AM CST 5:28 PM CST
Civil Twilight 6:30 AM CST 5:53 PM CST
Nautical Twilight 6:01 AM CST 6:22 PM CST
Astronomical Twilight 5:32 AM CST 6:51 PM CST
Moon 11:49 AM CST (1/19) 12:36 AM CST (1/19)
Length of Visible Light 11h 23m
Length of Day
10h 32m
First Quarter, 57% of the Moon is Illuminated
Jan 19
First Quarter
Jan 26
Full
Feb 3
Last Quarter
Feb 10
New
Feb 17
First Quarter

Hourly Weather History & Observations

Time (CST) Temp. Dew Point Humidity Pressure Visibility Wind Dir Wind Speed Gust Speed Precip Events Conditions
12:15 AM 50.0 °F 41.0 °F 71% 30.37 in 10.0 mi NE 9.2 mph - N/A   Unknown
12:35 AM 50.0 °F 41.0 °F 71% 30.37 in 10.0 mi NE 9.2 mph - N/A   Unknown
12:55 AM 50.0 °F 41.0 °F 71% 30.37 in 10.0 mi NE 9.2 mph - N/A   Unknown
1:15 AM 51.8 °F 41.0 °F 67% 30.36 in 10.0 mi NE 10.4 mph - N/A   Unknown
1:35 AM 51.8 °F 41.0 °F 67% 30.35 in 10.0 mi NE 8.1 mph - N/A   Unknown
1:55 AM 51.8 °F 41.0 °F 67% 30.35 in 10.0 mi NE 8.1 mph - N/A   Unknown
2:15 AM 51.8 °F 41.0 °F 67% 30.34 in 10.0 mi NE 8.1 mph - N/A   Unknown
2:35 AM 51.8 °F 41.0 °F 67% 30.34 in 10.0 mi NE 8.1 mph - N/A   Unknown
2:55 AM 51.8 °F 41.0 °F 67% 30.33 in 10.0 mi NE 11.5 mph - N/A   Unknown
3:15 AM 51.8 °F 41.0 °F 67% 30.33 in 10.0 mi NNE 11.5 mph - N/A   Unknown
3:35 AM 50.0 °F 41.0 °F 71% 30.33 in 10.0 mi NE 9.2 mph - N/A   Unknown
3:55 AM 50.0 °F 41.0 °F 71% 30.32 in 10.0 mi NE 10.4 mph - N/A   Unknown
4:15 AM 50.0 °F 41.0 °F 71% 30.32 in 10.0 mi NE 10.4 mph - N/A   Unknown
4:35 AM 50.0 °F 41.0 °F 71% 30.32 in 10.0 mi NE 10.4 mph - N/A   Clear
4:55 AM 50.0 °F 41.0 °F 71% 30.32 in 10.0 mi NE 9.2 mph - N/A   Clear
5:15 AM 50.0 °F 41.0 °F 71% 30.32 in 10.0 mi NE 6.9 mph - N/A   Unknown
5:35 AM 50.0 °F 42.8 °F 76% 30.33 in 10.0 mi NNE 9.2 mph - N/A   Unknown
5:55 AM 48.2 °F 42.8 °F 82% 30.33 in 10.0 mi NNE 8.1 mph - N/A   Unknown
7:15 AM 48.2 °F 42.8 °F 82% 30.34 in 10.0 mi North 8.1 mph - N/A   Unknown
7:55 AM 50.0 °F 42.8 °F 76% 30.35 in 10.0 mi NNE 8.1 mph - N/A   Unknown
8:15 AM 51.8 °F 44.6 °F 76% 30.35 in 10.0 mi North 8.1 mph - N/A   Unknown
8:35 AM 51.8 °F 42.8 °F 71% 30.35 in 10.0 mi North 9.2 mph - N/A   Unknown
9:55 AM 55.4 °F 42.8 °F 63% 30.38 in 10.0 mi North 9.2 mph - N/A   Unknown
10:15 AM 57.2 °F 42.8 °F 59% 30.38 in 10.0 mi NNE 10.4 mph - N/A   Unknown
10:35 AM 59.0 °F 42.8 °F 55% 30.36 in 10.0 mi NNE 10.4 mph - N/A   Unknown
11:15 AM 60.8 °F 44.6 °F 55% 30.35 in 10.0 mi NNE 12.7 mph - N/A   Unknown
11:35 AM 60.8 °F 44.6 °F 55% 30.33 in 10.0 mi North 11.5 mph - N/A   Unknown
11:55 AM 60.8 °F 46.4 °F 59% 30.32 in 10.0 mi NE 8.1 mph - N/A   Unknown
12:15 PM 62.6 °F 46.4 °F 55% 30.30 in 10.0 mi North 8.1 mph - N/A   Unknown
12:35 PM 62.6 °F 46.4 °F 55% 30.29 in 10.0 mi North 10.4 mph - N/A   Unknown
12:55 PM 64.4 °F 46.4 °F 52% 30.28 in 10.0 mi North 6.9 mph - N/A   Unknown
1:15 PM 64.4 °F 46.4 °F 52% 30.28 in 10.0 mi NE 6.9 mph - N/A   Unknown
1:35 PM 64.4 °F 46.4 °F 52% 30.27 in 10.0 mi NE 8.1 mph - N/A   Unknown
1:55 PM 64.4 °F 48.2 °F 56% 30.26 in 10.0 mi NNE 5.8 mph - N/A   Unknown
2:15 PM 64.4 °F 48.2 °F 56% 30.26 in 10.0 mi NNE 9.2 mph - N/A   Unknown
2:35 PM 62.6 °F 46.4 °F 55% 30.25 in 10.0 mi NNE 9.2 mph - N/A   Unknown
2:55 PM 64.4 °F 50.0 °F 59% 30.26 in 10.0 mi NE 6.9 mph - N/A   Unknown
3:15 PM 64.4 °F 48.2 °F 56% 30.26 in 10.0 mi NE 6.9 mph - N/A   Unknown
3:35 PM 64.4 °F 48.2 °F 56% 30.25 in 10.0 mi ENE 9.2 mph - N/A   Unknown
3:55 PM 62.6 °F 48.2 °F 59% 30.25 in 10.0 mi ENE 5.8 mph - N/A   Unknown
4:15 PM 62.6 °F 50.0 °F 63% 30.25 in 10.0 mi ENE 8.1 mph - N/A   Unknown
4:35 PM 60.8 °F 50.0 °F 68% 30.25 in 10.0 mi ENE 5.8 mph - N/A   Unknown
4:55 PM 60.8 °F 50.0 °F 68% 30.25 in 10.0 mi ENE 4.6 mph - N/A   Unknown
5:15 PM 59.0 °F 50.0 °F 72% 30.25 in 10.0 mi NE 5.8 mph - N/A   Unknown
5:35 PM 57.2 °F 50.0 °F 77% 30.25 in 10.0 mi ENE 4.6 mph - N/A   Unknown
5:55 PM 55.4 °F 50.0 °F 82% 30.25 in 10.0 mi ENE 5.8 mph - N/A   Clear
6:15 PM 55.4 °F 50.0 °F 82% 30.25 in 10.0 mi ENE 4.6 mph - N/A   Clear
6:35 PM 55.4 °F 50.0 °F 82% 30.25 in 10.0 mi ENE 4.6 mph - N/A   Clear
6:55 PM 53.6 °F 50.0 °F 88% 30.26 in 10.0 mi ENE 3.5 mph - N/A   Clear
7:15 PM 53.6 °F 50.0 °F 88% 30.26 in 10.0 mi ENE 4.6 mph - N/A   Clear
7:35 PM 53.6 °F 50.0 °F 88% 30.25 in 10.0 mi ENE 3.5 mph - N/A   Unknown
7:55 PM 53.6 °F 50.0 °F 88% 30.25 in 10.0 mi ENE 4.6 mph - N/A   Unknown
8:15 PM 53.6 °F 51.8 °F 94% 30.26 in 10.0 mi ENE 4.6 mph - N/A   Unknown
8:35 PM 53.6 °F 51.8 °F 94% 30.26 in 10.0 mi ENE 3.5 mph - N/A   Unknown
8:55 PM 53.6 °F 51.8 °F 94% 30.26 in 10.0 mi ENE 3.5 mph - N/A   Unknown
9:15 PM 51.8 °F 51.8 °F 100% 30.26 in 10.0 mi ENE 3.5 mph - N/A   Unknown
9:35 PM 51.8 °F 51.8 °F 100% 30.26 in 10.0 mi ENE 4.6 mph - N/A   Unknown
9:55 PM 51.8 °F 51.8 °F 100% 30.27 in 10.0 mi East 4.6 mph - N/A   Unknown
10:15 PM 51.8 °F 51.8 °F 100% 30.26 in 10.0 mi ENE 5.8 mph - N/A   Unknown
10:35 PM 51.8 °F 51.8 °F 100% 30.26 in 10.0 mi ENE 4.6 mph - N/A   Unknown
10:55 PM 51.8 °F 51.8 °F 100% 30.26 in 10.0 mi ENE 5.8 mph - N/A   Unknown
11:15 PM 51.8 °F 51.8 °F 100% 30.26 in 10.0 mi ENE 5.8 mph - N/A   Unknown
11:35 PM 51.8 °F 51.8 °F 100% 30.25 in 10.0 mi ENE 4.6 mph - N/A   Unknown
11:55 PM 51.8 °F 51.8 °F 100% 30.25 in 10.0 mi ENE 4.6 mph - N/A   Unknown